Date,TemperatureHighF,TemperatureAvgF,TemperatureLowF,DewpointHighF,DewpointAvgF,DewpointLowF,HumidityHigh,HumidityAvg,HumidityLow,PressureMaxIn,PressureMinIn,WindSpeedMaxMPH,WindSpeedAvgMPH,GustSpeedMaxMPH,PrecipitationSumIn
2013-1-1,35,27,18,32,23,13,91,86,78,30.20,29.99,0,-999,0,0.00
2013-1-2,37,25,15,20,14,10,82,66,35,30.20,30.10,0,-999,0,0.00
2013-1-3,42,30,22,26,21,17,84,69,45,30.36,30.18,0,-999,0,0.00
2013-1-4,46,34,22,24,21,17,84,61,36,30.40,30.26,0,-999,0,0.00
2013-1-5,42,37,32,31,26,20,78,64,55,30.27,30.11,0,-999,0,0.00
2013-1-6,40,32,26,28,21,16,82,64,41,30.31,30.14,0,-999,0,0.00
2013-1-7,53,38,29,25,22,17,69,53,30,30.29,30.07,0,-999,0,0.00
2013-1-8,56,43,32,45,29,22,90,60,41,30.17,30.01,0,-999,0,0.00
2013-1-9,55,49,43,46,40,31,91,74,51,30.35,30.16,0,-999,0,0.00
2013-1-10,52,48,42,49,43,31,90,84,48,30.27,29.80,0,-999,0,0.00
2013-1-11,65,55,46,46,43,40,85,65,41,29.82,29.69,0,-999,0,0.00
2013-1-12,56,40,28,47,31,23,87,72,43,29.94,29.76,0,-999,0,0.00
2013-1-13,27,22,16,24,16,10,87,80,76,30.29,29.90,0,-999,0,0.00
2013-1-14,27,18,13,19,12,8,82,76,65,30.42,30.28,0,-999,0,0.00
2013-1-15,29,23,17,21,17,12,82,78,66,30.30,30.09,0,-999,0,0.00
2013-1-16,41,28,16,23,17,10,82,65,42,30.11,30.03,0,-999,0,0.00
2013-1-17,43,35,29,30,24,18,86,66,49,30.42,30.09,0,-999,0,0.00
2013-1-18,57,42,30,28,24,21,72,51,26,30.44,30.13,0,-999,0,0.00
2013-1-19,63,50,44,34,31,24,62,47,33,30.18,30.00,0,-999,0,0.00
2013-1-20,51,39,27,32,21,14,75,51,27,30.25,30.13,0,-999,0,0.00
2013-1-21,33,24,18,15,12,9,69,58,40,30.34,30.24,0,-999,0,0.00
2013-1-22,34,26,19,16,13,11,72,58,46,30.30,30.17,0,-999,0,0.00
2013-1-23,58,38,25,38,26,14,75,64,45,30.25,30.10,0,-999,0,0.00
2013-1-24,35,30,24,22,13,9,64,50,37,30.34,30.08,0,-999,0,0.00
2013-1-25,48,36,27,27,23,15,82,60,37,30.20,30.05,0,-999,0,0.00
2013-1-26,58,45,32,24,22,19,67,41,24,30.25,30.11,0,-999,0,0.00
2013-1-27,46,43,41,34,30,23,73,61,40,30.12,30.02,0,-999,0,0.00
2013-1-28,73,68,65,59,57,56,77,68,56,29.92,29.78,0,-999,0,0.00
2013-1-29,69,60,43,60,54,40,91,81,69,29.79,29.41,0,-999,0,0.00
2013-1-30,44,32,26,41,26,17,91,78,66,29.95,29.41,0,-999,0,0.00
2013-1-31,40,26,13,26,16,0,83,63,52,30.39,29.91,0,-999,0,0.00
2013-2-1,34,21,8,13,6,0,71,53,35,30.40,30.11,0,-999,0,0.00
2013-2-2,51,39,27,32,25,13,76,58,45,30.17,30.08,0,-999,0,0.00
2013-2-3,51,42,33,29,23,18,72,48,28,30.24,29.92,0,-999,0,0.00
2013-2-4,62,49,34,39,30,22,79,50,37,29.93,29.78,0,-999,0,0.00
2013-2-5,62,46,29,36,30,24,87,57,30,30.04,29.87,0,-999,0,0.00
2013-2-6,57,47,36,36,31,27,70,55,38,30.09,29.93,0,-999,0,0.00
2013-2-7,53,47,42,49,42,36,90,82,69,30.06,29.85,0,-999,0,0.00
2013-2-8,47,37,32,37,29,25,87,74,54,30.27,30.05,0,-999,0,0.00
2013-2-9,42,36,32,33,29,27,86,76,57,30.18,29.81,0,-999,0,0.00
2013-2-10,59,48,37,50,34,24,90,63,29,29.95,29.59,0,-999,0,0.00
2013-2-11,51,40,31,28,24,22,72,55,34,30.14,29.95,0,-999,0,0.00
2013-2-12,44,37,28,32,27,22,90,69,52,30.11,29.89,0,-999,0,0.00
2013-2-13,48,37,31,34,30,29,90,78,52,29.93,29.85,0,-999,0,0.00
2013-2-14,54,44,36,33,28,22,63,53,38,30.10,29.86,0,-999,0,0.00
2013-2-15,43,34,27,30,18,10,79,53,31,30.27,30.10,0,-999,0,0.00
2013-2-16,36,30,22,22,17,12,84,60,37,30.26,30.06,0,-999,0,0.00
2013-2-17,65,47,32,30,23,16,54,40,22,30.06,29.78,0,-999,0,0.00
2013-2-18,59,48,31,49,36,19,84,64,48,30.04,29.55,0,-999,0,0.00
2013-2-19,42,31,25,21,14,8,69,51,29,30.24,30.02,0,-999,0,0.00
2013-2-20,34,28,23,13,9,7,56,45,35,30.25,30.06,0,-999,0,0.00
2013-2-21,33,30,28,30,24,12,88,79,44,30.07,29.65,0,-999,0,0.00
2013-2-22,33,27,22,30,21,17,88,77,66,30.03,29.75,0,-999,0,0.00
2013-2-23,40,28,18,21,18,13,81,67,45,30.03,29.91,0,-999,0,0.00
2013-2-24,53,40,27,31,25,18,71,57,41,29.98,29.82,0,-999,0,0.00
2013-2-25,45,37,33,32,28,24,88,70,45,29.88,29.38,0,-999,0,0.00
2013-2-26,34,32,31,30,29,28,90,87,84,29.78,29.29,0,-999,0,0.00
2013-2-27,34,32,30,28,26,23,85,80,72,29.97,29.74,0,-999,0,0.00
2013-2-28,31,30,28,25,23,22,80,76,72,30.12,29.96,0,-999,0,0.00
2013-3-1,29,28,26,23,22,20,84,78,72,30.19,30.08,0,-999,0,0.00
2013-3-2,33,26,23,22,18,15,83,70,57,30.26,30.13,0,-999,0,0.00
2013-3-3,55,38,23,30,22,16,77,55,35,30.15,29.78,0,-999,0,0.00
2013-3-4,63,49,39,43,34,25,81,57,40,29.80,29.59,0,-999,0,0.00
2013-3-5,42,36,28,32,24,19,87,63,47,30.24,29.78,0,-999,0,0.00
2013-3-6,44,33,25,23,19,15,70,57,40,30.35,30.21,0,-999,0,0.00
2013-3-7,60,44,32,29,24,21,68,48,26,30.25,30.11,0,-999,0,0.00
2013-3-8,59,47,37,37,31,29,73,55,40,30.23,30.01,0,-999,0,0.00
2013-3-9,70,56,44,54,43,36,88,65,34,30.03,29.67,0,-999,0,0.00
2013-3-10,58,47,31,54,43,28,89,85,67,29.84,29.59,0,-999,0,0.00
2013-3-11,43,33,27,29,24,21,87,71,44,29.97,29.80,0,-999,0,0.00
2013-3-12,53,40,29,29,23,18,70,50,34,30.26,29.96,0,-999,0,0.00
2013-3-13,46,36,26,24,20,17,72,53,35,30.42,30.26,0,-999,0,0.00
2013-3-14,72,52,36,38,28,18,54,41,28,30.32,30.05,0,-999,0,0.00
2013-3-15,80,65,52,45,42,37,67,46,24,30.08,29.71,0,-999,0,0.00
2013-3-16,67,56,43,47,42,35,74,60,41,29.90,29.71,0,-999,0,0.00
2013-3-17,42,39,37,38,36,33,89,87,74,29.92,29.66,0,-999,0,0.00
2013-3-18,53,44,39,40,35,25,91,73,38,30.00,29.65,0,-999,0,0.00
2013-3-19,47,39,27,30,22,13,75,53,29,30.20,29.99,0,-999,0,0.00
2013-3-20,44,35,29,29,19,9,85,56,26,30.30,30.07,0,-999,0,0.00
2013-3-21,37,31,26,27,18,9,87,61,33,30.08,29.82,0,-999,0,0.00
2013-3-22,37,34,31,32,29,27,87,85,80,29.91,29.81,0,-999,0,0.00
2013-3-23,40,37,34,37,34,31,90,88,78,29.91,29.67,0,-999,0,0.00
2013-3-24,39,33,28,36,29,19,91,84,71,30.01,29.53,0,-999,0,0.00
2013-3-25,32,27,22,24,20,15,79,73,66,30.25,29.98,0,-999,0,0.00
2013-3-26,41,31,22,25,22,18,85,69,48,30.35,30.24,0,-999,0,0.00
2013-3-27,52,40,28,27,23,19,73,52,34,30.28,30.14,0,-999,0,0.00
2013-3-28,70,56,44,46,37,27,61,50,39,30.18,30.08,0,-999,0,0.00
2013-3-29,67,58,51,53,48,43,90,71,49,30.16,30.09,0,-999,0,0.00
2013-3-30,69,56,50,55,47,-100,88,77,56,30.11,29.80,0,-999,0,0.00
2013-3-31,68,56,48,50,44,37,90,66,35,29.96,29.82,0,-999,0,0.00
2013-4-1,52,45,39,39,33,24,82,62,44,30.18,29.94,0,-999,0,0.00
2013-4-2,40,38,33,31,28,24,81,68,55,30.25,30.16,0,-999,0,0.00
2013-4-3,52,43,31,30,23,19,74,48,27,30.26,30.13,0,-999,0,0.00
2013-4-4,57,47,40,35,29,24,83,52,35,30.14,30.03,0,-999,0,0.00
2013-4-5,69,55,40,38,32,25,56,42,29,30.15,29.96,0,-999,0,0.00
2013-4-6,74,62,52,46,40,32,56,44,32,29.96,29.74,0,-999,0,0.00
2013-4-7,76,66,56,57,51,45,78,59,38,29.89,29.70,0,-999,0,0.00
2013-4-8,74,66,59,58,55,51,79,68,57,29.78,29.69,0,-999,0,0.00
2013-4-9,76,68,61,60,57,54,76,67,52,29.79,29.69,0,-999,0,0.00
2013-4-10,71,52,38,61,47,35,90,84,60,29.84,29.65,0,-999,0,0.00
2013-4-11,50,40,34,35,31,29,89,72,49,29.80,29.70,0,-999,0,0.00
2013-4-12,55,43,34,36,30,26,80,61,43,29.99,29.74,0,-999,0,0.00
2013-4-13,70,54,38,45,37,31,76,53,37,30.03,29.77,0,-999,0,0.00
2013-4-14,80,66,53,54,44,36,73,49,21,29.78,29.50,0,-999,0,0.00
2013-4-15,80,60,51,62,52,40,88,74,53,29.86,29.66,0,-999,0,0.00
2013-4-16,56,50,46,51,46,43,90,86,79,30.01,29.85,0,-999,0,0.00
2013-4-17,82,68,48,66,58,45,90,72,54,29.98,29.61,0,-999,0,0.00
2013-4-18,75,51,38,63,45,27,90,79,60,29.90,29.53,0,-999,0,0.00
2013-4-19,55,43,33,30,26,22,68,52,32,30.05,29.89,0,-999,0,0.00
2013-4-20,64,50,31,42,32,27,82,51,32,30.19,30.05,0,-999,0,0.00
2013-4-21,67,57,48,42,38,34,71,49,32,30.26,30.11,0,-999,0,0.00
2013-4-22,68,58,47,42,38,35,66,48,31,30.17,29.89,0,-999,0,0.00
2013-4-23,61,47,36,50,41,33,90,82,52,30.06,29.85,0,-999,0,0.00
2013-4-24,53,42,33,36,31,26,89,67,40,30.26,30.05,0,-999,0,0.00
2013-4-25,68,54,38,42,31,24,62,44,26,30.33,30.20,0,-999,0,0.00
2013-4-26,59,50,46,45,41,33,89,74,38,30.30,30.12,0,-999,0,0.00
2013-4-27,54,50,46,51,47,43,90,88,86,30.14,29.97,0,-999,0,0.00
2013-4-28,71,58,49,56,47,44,90,70,41,30.01,29.85,0,-999,0,0.00
2013-4-29,84,69,53,60,52,45,82,58,33,29.88,29.73,0,-999,0,0.00
2013-4-30,82,74,63,55,49,43,71,45,26,29.87,29.76,0,-999,0,0.00
2013-5-1,81,70,59,62,55,46,74,59,42,30.05,29.86,0,-999,0,0.00
2013-5-2,67,48,35,59,43,30,88,82,73,30.22,30.03,0,-999,0,0.00
2013-5-3,35,33,32,32,30,29,90,89,88,30.18,29.86,0,-999,0,0.00
2013-5-4,45,38,33,37,32,30,90,81,60,29.97,29.78,0,-999,0,0.00
2013-5-5,58,48,37,48,42,34,90,79,61,30.04,29.95,0,-999,0,0.00
2013-5-6,65,55,49,54,50,46,91,81,63,30.05,29.97,0,-999,0,0.00
2013-5-7,76,63,49,57,50,46,90,67,38,30.06,29.97,0,-999,0,0.00
2013-5-8,73,65,58,59,53,48,82,66,55,30.07,29.90,0,-999,0,0.00
2013-5-9,76,66,57,62,56,53,88,72,54,29.95,29.87,0,-999,0,0.00
2013-5-10,65,60,52,57,54,48,90,82,70,30.04,29.88,0,-999,0,0.00
2013-5-11,70,58,47,55,44,32,91,65,32,30.19,30.01,0,-999,0,0.00
2013-5-12,65,54,40,42,35,27,76,51,28,30.26,30.13,0,-999,0,0.00
2013-5-13,79,64,47,53,45,38,78,52,35,30.17,30.01,0,-999,0,0.00
2013-5-14,87,75,65,55,50,47,62,43,25,30.01,29.91,0,-999,0,0.00
2013-5-15,81,70,62,66,57,48,90,64,47,29.96,29.88,0,-999,0,0.00
2013-5-16,68,63,61,61,48,-100,90,86,75,29.90,29.83,0,-999,0,0.00
2013-5-17,80,69,61,64,56,-100,91,75,49,29.93,29.86,0,-999,0,0.00
2013-5-18,83,73,64,72,66,59,88,78,66,29.93,29.79,0,-999,0,0.00
2013-5-19,87,77,69,70,65,59,90,71,40,29.84,29.62,0,-999,0,0.00
2013-5-20,75,70,62,67,63,59,90,79,71,29.82,29.70,0,-999,0,0.00
2013-5-21,70,64,60,60,57,52,85,78,62,29.83,29.58,0,-999,0,0.00
2013-5-22,62,60,60,55,54,54,83,81,79,29.93,29.76,0,-999,0,0.00
2013-5-23,73,63,56,59,54,51,86,73,59,30.17,29.93,0,-999,0,0.00
2013-5-24,74,63,51,53,48,44,87,62,38,30.30,30.16,0,-999,0,0.00
2013-5-25,81,68,57,64,54,44,74,62,52,30.23,30.05,0,-999,0,0.00
2013-5-26,84,73,63,66,61,58,85,68,45,30.11,29.96,0,-999,0,0.00
2013-5-27,84,74,65,67,64,60,83,70,55,29.98,29.76,0,-999,0,0.00
2013-5-28,83,74,70,66,63,61,78,68,51,29.87,29.74,0,-999,0,0.00
2013-5-29,82,74,68,64,62,61,82,67,54,29.88,29.75,0,-999,0,0.00
2013-5-30,82,69,62,66,62,58,91,77,52,29.82,29.71,0,-999,0,0.00
2013-5-31,82,73,64,71,66,60,90,79,67,29.84,29.68,0,-999,0,0.00
2013-6-1,75,67,62,63,59,-100,90,78,58,29.97,29.69,0,-999,0,0.00
2013-6-2,63,59,53,56,53,49,88,81,72,30.05,29.96,0,-999,0,0.00
2013-6-3,76,62,45,57,51,43,92,71,42,30.05,29.90,0,-999,0,0.00
2013-6-4,74,66,61,64,58,54,86,77,65,30.01,29.92,0,-999,0,0.00
2013-6-5,71,65,61,65,60,56,90,85,80,29.98,29.84,0,-999,0,0.00
2013-6-6,71,64,58,63,59,53,92,83,63,29.94,29.88,0,-999,0,0.00
2013-6-7,74,64,54,59,54,50,88,70,46,29.97,29.90,0,-999,0,0.00
2013-6-8,80,69,55,59,54,48,83,61,42,29.94,29.83,0,-999,0,0.00
2013-6-9,79,69,59,65,58,56,90,70,47,29.91,29.81,0,-999,0,0.00
2013-6-10,88,76,64,72,64,56,79,66,51,29.90,29.81,0,-999,0,0.00
2013-6-11,92,82,71,69,65,59,78,58,34,29.97,29.89,0,-999,0,0.00
2013-6-12,90,82,74,70,68,64,78,62,43,29.94,29.85,0,-999,0,0.00
2013-6-13,83,76,68,70,64,57,81,67,54,30.02,29.89,0,-999,0,0.00
2013-6-14,88,77,65,73,65,61,86,69,54,30.03,29.92,0,-999,0,0.00
2013-6-15,80,73,66,67,65,63,91,76,60,30.05,29.91,0,-999,0,0.00
2013-6-16,88,77,67,73,68,60,90,74,56,29.98,29.89,0,-999,0,0.00
2013-6-17,73,69,66,68,64,57,90,83,62,30.01,29.85,0,-999,0,0.00
2013-6-18,84,72,59,67,62,57,92,72,45,30.02,29.94,0,-999,0,0.00
2013-6-19,86,75,63,66,62,57,87,66,45,30.04,29.96,0,-999,0,0.00
2013-6-20,85,74,68,69,64,61,80,72,57,30.07,30.01,0,-999,0,0.00
2013-6-22,89,84,76,71,69,67,74,61,51,30.05,29.92,0,-999,0,0.00
2013-6-23,90,81,71,72,68,66,86,67,48,29.99,29.89,0,-999,0,0.00
2013-6-24,90,81,72,71,68,66,80,65,46,30.04,29.92,0,-999,0,0.00
2013-6-25,89,81,73,71,67,64,79,63,45,29.96,29.80,0,-999,0,0.00
2013-6-26,93,84,74,74,70,65,79,64,49,29.90,29.79,0,-999,0,0.00
2013-6-27,94,85,76,78,74,70,84,70,54,29.96,29.83,0,-999,0,0.00
2013-6-28,88,78,69,74,66,57,91,68,47,29.93,29.82,0,-999,0,0.00
2013-6-29,83,74,64,63,57,52,76,57,38,29.85,29.76,0,-999,0,0.00
2013-6-30,78,68,62,64,58,56,88,71,51,29.96,29.81,0,-999,0,0.00
2013-7-1,78,69,60,60,56,50,87,66,41,30.02,29.95,0,-999,0,0.00
2013-7-2,78,68,57,57,53,49,82,61,39,30.07,30.00,0,-999,0,0.00
2013-7-3,82,71,61,60,54,51,72,57,37,30.09,29.99,0,-999,0,0.00
2013-7-4,82,72,62,63,58,53,79,61,41,30.05,29.96,0,-999,0,0.00
2013-7-5,87,76,63,62,57,53,73,54,33,30.02,29.92,0,-999,0,0.00
2013-7-6,89,76,66,66,61,56,82,63,35,30.01,29.92,0,-999,0,0.00
2013-7-7,91,80,70,68,62,59,77,56,35,30.03,29.96,0,-999,0,0.00
2013-7-8,92,80,71,71,65,62,75,61,43,30.08,30.01,0,-999,0,0.00
2013-7-9,96,84,75,71,67,65,76,58,38,30.05,29.93,0,-999,0,0.00
2013-7-10,93,82,73,77,70,64,88,68,39,30.05,29.92,0,-999,0,0.00
2013-7-11,86,78,69,73,66,59,91,69,41,30.03,29.96,0,-999,0,0.00
2013-7-12,87,76,66,64,59,53,74,58,35,30.08,29.99,0,-999,0,0.00
2013-7-13,83,74,64,64,58,52,67,56,44,30.07,29.96,0,-999,0,0.00
2013-7-14,87,75,63,62,58,53,80,58,33,30.08,29.99,0,-999,0,0.00
2013-7-15,89,76,67,69,64,56,87,68,43,30.17,30.07,0,-999,0,0.00
2013-7-16,91,80,70,72,69,65,89,70,43,30.28,30.20,0,-999,0,0.00
2013-7-17,92,81,69,70,68,64,90,66,41,30.33,30.19,0,-999,0,0.00
2013-7-18,96,83,73,68,66,62,75,58,37,30.22,30.09,0,-999,0,0.00